| time (UTC) | temp F | wind direction | speed MPH | gust MPH | rain 1hr in | rain 24hr in | rain mn in | humidity % | barometer mb |
| 20260906040028 | 65 | 24 | 0.0 | 0.0 | 0.00 | 0.03 | 0.00 | 82 | 1015.5 |
| 20260906034527 | 66 | 59 | 0.0 | 0.0 | 0.00 | 0.03 | 0.03 | 81 | 1015.5 |
| 20260906033025 | 66 | 55 | 0.0 | 0.0 | 0.00 | 0.03 | 0.03 | 79 | 1015.4 |
| 20260906031523 | 67 | 94 | 0.0 | 0.0 | 0.00 | 0.03 | 0.03 | 78 | 1015.4 |
| 20260906030021 | 67 | 86 | 0.0 | 0.0 | 0.00 | 0.03 | 0.03 | 75 | 1015.2 |
| 20260906024519 | 68 | 55 | 0.0 | 0.0 | 0.00 | 0.04 | 0.03 | 75 | 1015.4 |
| 20260906023016 | 68 | 74 | 0.0 | 0.0 | 0.00 | 0.04 | 0.03 | 74 | 1015.4 |
| 20260906021525 | 69 | 105 | 0.0 | 0.0 | 0.00 | 0.04 | 0.03 | 74 | 1015.3 |
| 20260906020017 | 69 | 100 | 0.0 | 6.0 | 0.00 | 0.04 | 0.03 | 74 | 1015.4 |
| 20260906014515 | 70 | 115 | 0.0 | 0.0 | 0.00 | 0.04 | 0.03 | 73 | 1015.0 |
| 20260906013017 | 70 | 96 | 0.0 | 0.0 | 0.00 | 0.04 | 0.03 | 71 | 1015.1 |
| 20260906011506 | 71 | 90 | 0.0 | 0.0 | 0.00 | 0.04 | 0.03 | 68 | 1014.9 |
| 20260906010004 | 71 | 94 | 0.0 | 0.0 | 0.00 | 0.04 | 0.03 | 67 | 1014.8 |
| 20260906004502 | 72 | 84 | 0.0 | 0.0 | 0.00 | 0.04 | 0.03 | 68 | 1014.4 |
| 20260906003003 | 72 | 82 | 0.0 | 0.0 | 0.00 | 0.04 | 0.03 | 70 | 1014.3 |
| 20260906001600 | 73 | 102 | 0.0 | 0.0 | 0.00 | 0.04 | 0.03 | 70 | 1014.3 |
| 20260906000059 | 73 | 96 | 0.0 | 0.0 | 0.00 | 0.04 | 0.03 | 68 | 1014.2 |
| 20260905234556 | 74 | 105 | 0.0 | 9.0 | 0.00 | 0.04 | 0.03 | 67 | 1014.2 |
| 20260905233106 | 74 | 64 | 0.0 | 0.0 | 0.01 | 0.04 | 0.03 | 65 | 1014.3 |
| 20260905231555 | 75 | 49 | 0.0 | 0.0 | 0.01 | 0.04 | 0.03 | 65 | 1014.2 |
| 20260905230054 | 76 | 134 | 0.0 | 0.0 | 0.01 | 0.04 | 0.03 | 62 | 1013.9 |
| 20260905224556 | 76 | 94 | 0.0 | 5.0 | 0.01 | 0.04 | 0.03 | 63 | 1013.8 |
| 20260905223054 | 77 | 94 | 2.0 | 8.0 | 0.00 | 0.03 | 0.02 | 59 | 1013.7 |
| 20260905221551 | 77 | 94 | 0.0 | 0.0 | 0.00 | 0.03 | 0.02 | 59 | 1013.6 |
| 20260905220051 | 78 | 101 | 0.0 | 8.0 | 0.00 | 0.03 | 0.02 | 58 | 1013.5 |
| 20260905214548 | 78 | 98 | 0.0 | 0.0 | 0.00 | 0.03 | 0.02 | 61 | 1013.4 |
| 20260905213049 | 78 | 134 | 0.0 | 10.0 | 0.00 | 0.03 | 0.02 | 64 | 1013.1 |
| 20260905211546 | 78 | 94 | 0.0 | 2.0 | 0.00 | 0.03 | 0.02 | 66 | 1013.3 |
| 20260905210045 | 78 | 129 | 0.0 | 0.0 | 0.00 | 0.03 | 0.02 | 65 | 1013.4 |
| 20260905204545 | 78 | 130 | 0.0 | 0.0 | 0.00 | 0.03 | 0.02 | 66 | 1013.3 |
| 20260905203044 | 77 | 144 | 0.0 | 0.0 | 0.00 | 0.03 | 0.02 | 68 | 1013.4 |
| 20260905201543 | 77 | 107 | 0.0 | 0.0 | 0.00 | 0.03 | 0.02 | 69 | 1013.6 |
| 20260905200048 | 77 | 105 | 0.0 | 0.0 | 0.00 | 0.03 | 0.02 | 68 | 1013.8 |
| 20260905194544 | 77 | 135 | 0.0 | 3.0 | 0.00 | 0.04 | 0.02 | 68 | 1013.7 |
| 20260905193039 | 77 | 111 | 0.0 | 3.0 | 0.00 | 0.04 | 0.02 | 70 | 1013.8 |
| 20260905191542 | 77 | 115 | 0.0 | 2.0 | 0.00 | 0.04 | 0.02 | 70 | 1014.0 |
| 20260905190046 | 78 | 150 | 0.0 | 0.0 | 0.00 | 0.04 | 0.02 | 69 | 1014.0 |
| 20260905184539 | 77 | 59 | 0.0 | 0.0 | 0.00 | 0.04 | 0.02 | 71 | 1014.0 |
| 20260905183030 | 77 | 105 | 0.0 | 0.0 | 0.01 | 0.04 | 0.02 | 72 | 1014.0 |
| 20260905181529 | 76 | 80 | 0.0 | 0.0 | 0.01 | 0.04 | 0.02 | 74 | 1014.1 |
| 20260905180028 | 76 | 94 | 0.0 | 0.0 | 0.01 | 0.04 | 0.02 | 72 | 1014.1 |
| 20260905174527 | 76 | 84 | 0.0 | 0.0 | 0.01 | 0.04 | 0.02 | 73 | 1014.1 |
| 20260905173021 | 75 | 89 | 0.0 | 0.0 | 0.00 | 0.03 | 0.01 | 76 | 1014.1 |
| 20260905171521 | 74 | 86 | 0.0 | 0.0 | 0.00 | 0.03 | 0.01 | 78 | 1014.4 |
| 20260905170020 | 74 | 58 | 0.0 | 0.0 | 0.00 | 0.03 | 0.01 | 78 | 1014.5 |
| 20260905164519 | 74 | 109 | 0.0 | 0.0 | 0.00 | 0.03 | 0.01 | 77 | 1014.3 |
| 20260905163017 | 74 | 102 | 0.0 | 0.0 | 0.00 | 0.03 | 0.01 | 79 | 1014.3 |
| 20260905161516 | 75 | 92 | 0.0 | 0.0 | 0.00 | 0.03 | 0.01 | 79 | 1014.3 |
| 20260905160019 | 74 | 112 | 0.0 | 0.0 | 0.00 | 0.03 | 0.01 | 81 | 1014.2 |
| 20260905154514 | 74 | 149 | 0.0 | 0.0 | 0.00 | 0.04 | 0.01 | 80 | 1014.1 |
| 20260905153015 | 74 | 108 | 0.0 | 0.0 | 0.00 | 0.04 | 0.01 | 82 | 1014.3 |
| 20260905151513 | 73 | 85 | 0.0 | 0.0 | 0.00 | 0.04 | 0.01 | 82 | 1014.2 |
| 20260905150008 | 72 | 24 | 0.0 | 0.0 | 0.00 | 0.04 | 0.01 | 83 | 1014.0 |
| 20260905144515 | 72 | 69 | 0.0 | 0.0 | 0.00 | 0.04 | 0.01 | 84 | 1013.7 |
| 20260905143006 | 72 | 95 | 0.0 | 0.0 | 0.00 | 0.04 | 0.01 | 85 | 1013.6 |
| 20260905141505 | 72 | 137 | 0.0 | 0.0 | 0.00 | 0.04 | 0.01 | 85 | 1013.7 |
| 20260905140005 | 72 | 88 | 0.0 | 0.0 | 0.00 | 0.04 | 0.01 | 86 | 1013.6 |
| 20260905134504 | 72 | 95 | 0.0 | 0.0 | 0.00 | 0.04 | 0.01 | 87 | 1013.5 |
| 20260905133004 | 72 | 121 | 0.0 | 0.0 | 0.00 | 0.04 | 0.01 | 87 | 1013.4 |
| 20260905131504 | 71 | 104 | 0.0 | 0.0 | 0.00 | 0.04 | 0.01 | 88 | 1013.6 |
| 20260905130003 | 71 | 97 | 0.0 | 0.0 | 0.00 | 0.04 | 0.01 | 88 | 1013.8 |
| 20260905124501 | 71 | 98 | 0.0 | 0.0 | 0.00 | 0.04 | 0.01 | 89 | 1013.6 |
| 20260905123001 | 71 | 111 | 0.0 | 0.0 | 0.00 | 0.04 | 0.01 | 88 | 1013.7 |
| 20260905121602 | 71 | 128 | 0.0 | 0.0 | 0.00 | 0.04 | 0.01 | 88 | 1013.7 |
| 20260905120057 | 71 | 128 | 0.0 | 0.0 | 0.00 | 0.04 | 0.01 | 87 | 1013.4 |
| 20260905114557 | 71 | 107 | 0.0 | 0.0 | 0.00 | 0.04 | 0.01 | 87 | 1013.4 |
| 20260905113055 | 71 | 105 | 0.0 | 0.0 | 0.00 | 0.04 | 0.01 | 86 | 1013.4 |
| 20260905111556 | 70 | 146 | 0.0 | 0.0 | 0.00 | 0.04 | 0.01 | 87 | 1013.2 |
| 20260905110056 | 70 | 111 | 0.0 | 0.0 | 0.00 | 0.04 | 0.01 | 87 | 1013.2 |
| 20260905104557 | 70 | 110 | 0.0 | 0.0 | 0.00 | 0.04 | 0.01 | 87 | 1013.1 |
| 20260905103054 | 70 | 105 | 0.0 | 0.0 | 0.00 | 0.04 | 0.01 | 86 | 1013.1 |
| 20260905101553 | 70 | 123 | 0.0 | 0.0 | 0.00 | 0.04 | 0.01 | 86 | 1013.2 |
| 20260905100112 | 71 | 117 | 0.0 | 0.0 | 0.00 | 0.04 | 0.01 | 87 | 1013.1 |
| 20260905094552 | 71 | 117 | 0.0 | 0.0 | 0.00 | 0.04 | 0.01 | 86 | 1013.2 |
| 20260905093050 | 71 | 105 | 0.0 | 0.0 | 0.01 | 0.04 | 0.01 | 87 | 1013.1 |
| 20260905091552 | 71 | 101 | 0.0 | 0.0 | 0.01 | 0.04 | 0.01 | 88 | 1013.0 |
| 20260905090111 | 71 | 97 | 0.0 | 0.0 | 0.01 | 0.04 | 0.01 | 89 | 1012.8 |
| 20260905084549 | 71 | 51 | 0.0 | 0.0 | 0.01 | 0.04 | 0.01 | 89 | 1012.2 |
| 20260905083052 | 71 | 23 | 0.0 | 0.0 | 0.00 | 0.03 | 0.00 | 90 | 1012.2 |
| 20260905081552 | 71 | 84 | 0.0 | 0.0 | 0.00 | 0.03 | 0.00 | 91 | 1012.2 |
| 20260905080053 | 71 | 85 | 0.0 | 0.0 | 0.00 | 0.03 | 0.00 | 91 | 1012.5 |
| 20260905074548 | 71 | 107 | 0.0 | 0.0 | 0.00 | 0.03 | 0.00 | 91 | 1012.6 |
| 20260905073044 | 71 | 96 | 0.0 | 0.0 | 0.00 | 0.03 | 0.00 | 92 | 1012.6 |
| 20260905071543 | 71 | 113 | 0.0 | 0.0 | 0.00 | 0.03 | 0.00 | 92 | 1012.4 |
| 20260905070043 | 71 | 108 | 0.0 | 0.0 | 0.00 | 0.03 | 0.00 | 92 | 1012.3 |
| 20260905064542 | 71 | 107 | 0.0 | 0.0 | 0.00 | 0.03 | 0.00 | 92 | 1012.1 |
| 20260905063040 | 71 | 124 | 0.0 | 0.0 | 0.00 | 0.03 | 0.00 | 92 | 1012.0 |
| 20260905061541 | 72 | 104 | 0.0 | 0.0 | 0.00 | 0.03 | 0.00 | 92 | 1012.2 |
| 20260905060046 | 72 | 105 | 0.0 | 0.0 | 0.00 | 0.03 | 0.00 | 92 | 1012.6 |
| 20260905054540 | 72 | 103 | 0.0 | 0.0 | 0.00 | 0.04 | 0.00 | 92 | 1013.0 |
| 20260905053037 | 72 | 104 | 0.0 | 0.0 | 0.00 | 0.04 | 0.00 | 92 | 1013.0 |
| 20260905051538 | 72 | 105 | 0.0 | 0.0 | 0.00 | 0.04 | 0.00 | 92 | 1012.7 |
| 20260905050031 | 72 | 112 | 0.0 | 0.0 | 0.00 | 0.04 | 0.00 | 93 | 1012.8 |
| 20260905044537 | 73 | 92 | 0.0 | 0.0 | 0.00 | 0.04 | 0.00 | 93 | 1013.1 |
| 20260905043028 | 73 | 104 | 0.0 | 0.0 | 0.00 | 0.04 | 0.00 | 93 | 1013.3 |
| 20260905041526 | 73 | 105 | 0.0 | 0.0 | 0.00 | 0.04 | 0.00 | 93 | 1013.1 |